Regional Weather Roundup
Issued by NWS Charleston, WV

Home | Current Version | Previous Version | Graphics & Text | Print | Product List | Glossary On
Versions: 1 2 3 4 5 6 7 8 9 10 11 12 13 14 15 16 17 18 19 20 21 22 23 24 25 26 27
000
ASUS41 KRLX 311710
RWRRLX
West Virginia Regional Weather Roundup
National Weather Service Charleston WV
100 PM EDT TUE MAY 31 2016

Note: "fair" indicates few or no clouds below 12,000 feet with no
significant weather and/or obstructions to visibility.

WVZ003-311800-
Northern Panhandle of West Virginia

CITY           SKY/WX    TMP DP  RH WIND       PRES   REMARKS
WHEELING         N/A     82  57  42 S8        30.02F
$$

WVZ009-311800-
Northwest West Virginia

CITY           SKY/WX    TMP DP  RH WIND       PRES   REMARKS
PARKERSBURG      N/A     84  59  42 VRB3      30.04F
$$

WVZ006-311800-
Western West Virginia

CITY           SKY/WX    TMP DP  RH WIND       PRES   REMARKS
HUNTINGTON       N/A     83  60  45 N5        30.02F
$$

WVZ015-311800-
West Central West Virginia

CITY           SKY/WX    TMP DP  RH WIND       PRES   REMARKS
CHARLESTON       N/A     84  58  40 NE9       30.02F
$$

WVZ022-031-311800-
North Central West Virginia

CITY           SKY/WX    TMP DP  RH WIND       PRES   REMARKS
CLARKSBURG       N/A     82  55  39 NE5       30.03F
MORGANTOWN       N/A     83  54  36 N7        30.04F
$$

WVZ025-035-042-045-311800-
Southern West Virginia

CITY           SKY/WX    TMP DP  RH WIND       PRES   REMARKS
BECKLEY          N/A     77  58  51 N8        30.08F
LOGAN            N/A     82  61  47 CALM      30.04S
BLUEFIELD        N/A     76  58  53 E5        30.10F
LEWISBURG        N/A     76  58  52 CALM      30.07F
$$

WVZ047-311800-
Northern Mountains of West Virginia

CITY           SKY/WX    TMP DP  RH WIND       PRES   REMARKS
ELKINS           N/A     80  50  34 VRB5      30.06F
$$

WVZ052-311800-
Eastern Panhandle of West Virginia

CITY           SKY/WX    TMP DP  RH WIND       PRES   REMARKS
MARTINSBURG      N/A     83  58  42 VRB3      30.00F
PETERSBURG       N/A     83  56  39 E8        30.03S
$$




USA.gov is the U.S. government's official web portal to all federal, state and local government web resources and services.